Regional Weather Roundup
Issued by NWS

Home | Current Version | Previous Version | Text Only | Print | Product List | Glossary On
Versions: 1 2 3 4 5 6 7 8 9 10 11 12 13 14 15 16 17 18 19 20 21 22 23 24 25 26 27 28 29 30 31 32 33 34 35 36 37 38 39 40 41 42 43 44 45 46 47 48 49 50
000
ASUS43 KLSX 042359
RWRMO

WEATHER SUMMARY FOR MISSOURI
NATIONAL WEATHER SERVICE SPRINGFIELD MO
600 PM CST WED MAR 04 2015

NOTE: "FAIR" INDICATES FEW OR NO CLOUDS BELOW 12,000 FEET WITH NO
       SIGNIFICANT WEATHER AND/OR OBSTRUCTIONS TO VISIBILITY.
       CURRENT SKY AND/OR WEATHER CONDITIONS ARE NOT AVAILABLE FOR
       CHILLICOTHE AND FARMINGTON.

MOZ001>031-035>038-043-044-053-054-050100-
...NORTHERN AND WESTERN MISSOURI...

CITY           SKY/WX    TMP DP  RH WIND       PRES   REMARKS
KANSAS CTY INT CLOUDY    27   7  42 N9        30.30R WCI  18
6HR MIN TEMP:  25; 6HR MAX TEMP:  29;

KANSAS C DTWN  CLOUDY    29   4  34 N9        30.33R WCI  20
6HR MIN TEMP:  26; 6HR MAX TEMP:  30;

LEE`S SUMMIT   CLOUDY    27   4  37 N5        30.32R WCI  22
6HR MIN TEMP:  24; 6HR MAX TEMP:  27;

ST JOSEPH      MOCLDY    29   8  41 NW3       30.31R
6HR MIN TEMP:  25; 6HR MAX TEMP:  30;

CHILLICOTHE      N/A     29   7  39 NW5       30.29R WCI  24
6HR MIN TEMP:  25; 6HR MAX TEMP:  29;


$$
MOZ066>068-077>081-088>096-101>105-050100-
...SOUTHWEST MISSOURI...

CITY           SKY/WX    TMP DP  RH WIND       PRES   REMARKS
SPRINGFIELD    FLURRIES  23   8  52 N10       30.27R WCI  12
6HR MIN TEMP:  22; 6HR MAX TEMP:  23; 6HR PCP: TRACE;

JOPLIN         CLOUDY    25   9  50 N10       30.32R WCI  15
6HR MIN TEMP:  22; 6HR MAX TEMP:  25; 6HR PCP:  0.01;


$$
MOZ032>034-039>042-045>050-055>058-069>072-050100-
...CENTRAL MISSOURI...

CITY           SKY/WX    TMP DP  RH WIND       PRES   REMARKS
COLUMBIA       MOCLDY    23   4  44 N13       30.28R WCI  11
6HR MIN TEMP:  21; 6HR MAX TEMP:  25;

JEFFERSON CITY CLOUDY    25   1  35 N12       30.32R WCI  14
6HR MIN TEMP:  22; 6HR MAX TEMP:  26;

ROLLA          CLOUDY    21   4  47 N15       30.22S WCI   8
6HR MIN TEMP:  19; 6HR MAX TEMP:  22; 6HR PCP: TRACE;

SEDALIA        CLOUDY    25   3  38 N10       30.30R WCI  15
6HR MIN TEMP:  23; 6HR MAX TEMP:  26;

OSAGE BEACH    CLOUDY    25   5  42 N6        30.28R WCI  18

$$
MOZ051-052-059>065-050100-
...EAST CENTRAL MISSOURI...

CITY           SKY/WX    TMP DP  RH WIND       PRES   REMARKS
ST LOUIS INTL  CLOUDY    24   5  44 N12       30.29R WCI  13
6HR MIN TEMP:  23; 6HR MAX TEMP:  25; 6HR PCP: TRACE;

SPIRIT OF STL  CLOUDY    23   3  42 N10G18    30.29R WCI  12
6HR MIN TEMP:  21; 6HR MAX TEMP:  24;

ST CHARLES     CLOUDY    23   6  48 N13       30.31R WCI  11
6HR MIN TEMP:  22; 6HR MAX TEMP:  24;


$$
MOZ072>076-082>087-097>100-106>115-050100-
...SOUTH CENTRAL AND SOUTHEAST MISSOURI...

CITY           SKY/WX    TMP DP  RH WIND       PRES   REMARKS
CAPE GIRARDEAU FOG       20  18  92 N15       30.25R VSB 1/2 WCI   6
6HR MIN TEMP:  20; 6HR MAX TEMP:  28; 6HR PCP:  0.15;

FARMINGTON     CLOUDY    19  10  68 N8        30.26R WCI   9
6HR MIN TEMP:  18; 6HR MAX TEMP:  21; 6HR PCP:  0.01;

POPLAR BLUFF   FOG       22  18  85 N14       30.23R VSB 3/4 WCI   9
6HR MIN TEMP:  22; 6HR MAX TEMP:  31; 6HR PCP:  0.23;

WEST PLAINS    LGT SNOW  19  14  81 N12       30.22R VSB 3/4 WCI   7
6HR MIN TEMP:  19; 6HR MAX TEMP:  23; 6HR PCP:  0.11;


$$


USA.gov is the U.S. government's official web portal to all federal, state and local government web resources and services.